User: anonymous   Login
Location: Unspecified
(0.0000°N, 0.0000°E)
Time: 08:27:18
(UTC+00:00)
Language:

Transit 2A - Orbit

View from above orbital plane
View from above orbital plane
View from above satellite
View from above satellite

Ground track
Ground track

The orbit data is extracted from the following two-line orbital elements,

1    45U 60007A   18173.91811899 -.00000066 +00000-0 +10322-4 0  9993
2    45 066.6941 132.7562 0249292 124.7655 237.7190 14.33602108961875
Epoch (UTC): 22 June 2018 22:02:05
Eccentricity: 0.0249292
inclination: 66.6941°
perigee height: 601 km
apogee height: 958 km
right ascension of ascending node: 132.7562°
argument of perigee: 124.7655°
revolutions per day: 14.33602108
mean anomaly at epoch: 237.7190°
orbit number at epoch: 96187

The dashed part of the orbit path shows where the satellite is in the earth's shadow,  

DLR